Weather observations for the past three days for
Clarion
Imperial (Metric)
Date Time (cdt) Wind (mph) Vis. (mi.) Weather Sky Cond. Temperature (ºF) Relative Humidity Wind Chill (°F) Heat Index (°F) Pressure Precipitation (in)
Air Dwpt 6 hour altimeter (in) sea level (mb) 1 hr 3 hr 6 hr
Max. Min.
01 15:35 SE 10 10.00 Fair CLR 91.4 78.8 67% 108 29.92 0.0
01 15:15 SE 8 10.00 Fair CLR 91.4 77 63% 105 29.92 0.0
01 14:55 SE 12 10.00 Fair CLR 89.6 77 67% 103 29.93 0.0
01 14:35 SE 10 10.00 Fair CLR 87.8 77 70% 100 29.93 0.0
01 14:15 SE 9 10.00 Fair CLR 89.6 77 67% 103 29.94 0.0
01 13:55 SE 9 G 15 10.00 Fair CLR 89.6 75.2 63% 100 29.94 0.0
01 13:35 Vrbl 5 G 12 10.00 A Few Clouds FEW024 87.8 78.8 75% 102 29.95 0.0
01 13:15 Vrbl 6 10.00 Partly Cloudy SCT024 SCT110 87.8 78.8 75% 102 29.96 0.0
01 12:55 NE 5 10.00 Partly Cloudy SCT023 SCT110 86 80.6 84% 102 29.97 0.0
01 12:35 E 3 10.00 Mostly Cloudy BKN023 BKN110 86 80.6 84% 102 29.98 0.0
01 12:15 Vrbl 6 10.00 A Few Clouds FEW024 FEW110 87.8 80.6 79% 105 29.98 0.0
01 11:55 SE 5 10.00 A Few Clouds FEW024 86 80.6 84% 102 29.98 0.0
01 11:35 Vrbl 3 10.00 Fair CLR 86 80.6 84% 102 29.98 0.0
01 11:15 E 5 10.00 Fair CLR 84.2 78.8 84% 96 29.97 0.0
01 10:55 E 3 10.00 Fair CLR 84.2 80.6 89% 98 29.97 0.0
01 10:35 SE 5 10.00 Fair CLR 84.2 82.4 94% 101 29.97 0.0
01 10:15 Vrbl 6 10.00 A Few Clouds FEW110 82.4 82.4 100% 96 29.97 0.0
01 09:55 Vrbl 3 10.00 Fair CLR 82.4 82.4 100% 96 29.97 0.0
01 09:35 E 3 10.00 A Few Clouds FEW110 80.6 80.6 100% 89 29.97 0.0
01 09:15 Calm 10.00 Fair CLR 78.8 78.8 100% 83 29.97 0.0
01 08:55 Calm 9.00 Fair CLR 77 77 100% 78 29.98 0.0
01 08:35 E 3 6.00 Fog/Mist FEW110 75.2 75.2 100% 73 29.98 0.0
01 08:15 E 3 4.00 Fog/Mist SCT100 73.4 73.4 100% 29.98 0.0
01 07:55 E 5 3.00 Fog/Mist FEW100 73.4 73.4 100% 29.98 0.0
01 07:35 E 3 3.00 Fog/Mist SCT095 71.6 71.6 100% 29.98 0.0
01 07:15 E 6 3.00 Fog/Mist BKN095 71.6 71.6 100% 29.97 0.0
01 06:55 SE 3 4.00 Fog/Mist BKN095 71.6 71.6 100% 29.97 0.0
01 06:35 Calm 5.00 Fog/Mist BKN095 BKN110 71.6 71.6 100% 29.96 0.0
01 06:15 S 3 7.00 Overcast BKN095 OVC120 71.6 71.6 100% 29.96 0.0
01 05:55 Calm 4.00 Fog/Mist FEW050 BKN090 BKN120 71.6 71.6 100% 29.96 0.0
01 05:15 Calm 3.00 Fog/Mist BKN090 OVC110 71.6 71.6 100% 29.96 0.0
01 04:55 E 5 3.00 Fog/Mist SCT085 BKN110 69.8 69.8 100% 29.96 0.0
01 04:35 E 3 3.00 Fog/Mist BKN080 BKN100 OVC120 69.8 69.8 100% 29.96 0.0
01 04:15 NE 3 4.00 Fog/Mist BKN080 BKN085 OVC120 69.8 69.8 100% 29.95 0.0
01 03:55 SE 3 2.50 Fog/Mist SCT080 SCT120 69.8 69.8 100% 29.95 0.0
01 03:35 S 6 4.00 Fog/Mist SCT120 68 68 100% 29.95 0.0
01 03:15 SE 3 4.00 Fog/Mist CLR 68 68 100% 29.96 0.0
01 02:55 SE 3 4.00 Fog/Mist FEW120 69.8 69.8 100% 29.96 0.0
01 02:35 NE 3 5.00 Fog/Mist FEW120 69.8 69.8 100% 29.96 0.0
01 02:15 Calm 6.00 Fog/Mist CLR 69.8 69.8 100% 29.96 0.0
01 01:55 Calm 6.00 Fog/Mist CLR 69.8 69.8 100% 29.97 0.0
01 01:35 Calm 6.00 Fog/Mist CLR 69.8 69.8 100% 29.97 0.0
01 01:15 Calm 4.00 Fog/Mist CLR 69.8 69.8 100% 29.97 0.0
01 00:55 Calm 4.00 Fog/Mist CLR 69.8 69.8 100% 29.97 0.0
01 00:35 S 5 6.00 Fog/Mist CLR 69.8 69.8 100% 29.96 0.0
01 00:15 Calm 0.50 Fog/Mist VV005 68 68 100% 29.96 0.0
31 23:55 Calm 9.00 Fair CLR 69.8 69.8 100% 29.96 0.0
31 23:35 Calm 6.00 Fog/Mist CLR 69.8 69.8 100% 29.96 0.0
31 23:15 E 3 7.00 Fair CLR 69.8 69.8 100% 29.95 0.0
31 22:55 E 3 9.00 Fair CLR 71.6 71.6 100% 29.95 0.0
31 22:35 E 3 10.00 Fair CLR 71.6 71.6 100% 29.95 0.0
31 22:15 E 3 10.00 Fair CLR 71.6 71.6 100% 29.94 0.0
31 21:55 Calm 8.00 Fair CLR 71.6 71.6 100% 29.94 0.0
31 21:35 NE 3 8.00 Fair CLR 73.4 73.4 100% 29.94 0.0
31 21:15 Calm 10.00 Fair CLR 75.2 75.2 100% 73 29.94 0.0
31 20:55 Calm 10.00 Fair CLR 75.2 75.2 100% 73 29.93 0.0
31 20:35 Calm 10.00 A Few Clouds FEW025 75.2 75.2 100% 73 29.92 0.0
31 20:15 S 3 10.00 A Few Clouds FEW024 77 77 100% 78 29.92 0.0
31 19:55 Calm 9.00 Fair CLR 78.8 78.8 100% 83 29.92 0.0
31 19:35 Calm 8.00 Fair CLR 82.4 82.4 100% 96 29.92 0.0
31 19:15 Calm 8.00 Fair CLR 84.2 82.4 94% 101 29.91 0.0
31 18:55 Calm 10.00 Fair CLR 84.2 78.8 84% 96 29.91 0.0
31 18:35 W 3 10.00 Fair CLR 86 77 75% 97 29.92 0.0
31 18:15 W 5 10.00 Fair CLR 86 75.2 70% 95 29.92 0.0
31 17:55 W 6 10.00 Fair CLR 86 75.2 70% 95 29.91 0.0
31 17:35 Vrbl 7 10.00 Fair CLR 86 77 75% 97 29.91 0.0
31 17:15 W 7 10.00 Fair CLR 87.8 77 70% 100 29.91 0.0
31 16:55 SW 7 10.00 Fair CLR 87.8 77 70% 100 29.91 0.0
31 16:35 W 6 10.00 Fair CLR 86 75.2 70% 95 29.9 0.0
31 16:15 SW 7 10.00 Fair CLR 86 75.2 70% 95 29.9 0.0
31 15:55 SW 6 10.00 Fair CLR 86 75.2 70% 95 29.91 0.0
31 15:35 SW 6 10.00 Fair CLR 86 75.2 70% 95 29.91 0.0
31 15:15 W 7 G 13 10.00 Fair CLR 86 77 75% 97 29.91 0.0
31 14:55 SW 8 10.00 Fair CLR 86 78.8 79% 99 29.91 0.0
31 14:35 W 7 G 13 10.00 Fair CLR 86 78.8 79% 99 29.9 0.0
31 14:15 SW 9 10.00 Fair CLR 86 80.6 84% 102 29.9 0.0
31 13:55 SW 8 10.00 Fair CLR 84.2 82.4 94% 101 29.9 0.0
31 13:35 SW 8 10.00 Fair CLR 82.4 82.4 100% 96 29.9 0.0
31 13:15 S 6 10.00 Fair CLR 82.4 80.6 94% 94 29.89 0.0
31 12:55 Vrbl 5 10.00 Fair CLR 82.4 82.4 100% 96 29.88 0.0
31 12:35 Calm 9.00 Fair CLR 82.4 80.6 94% 94 29.88 0.0
31 12:15 E 5 10.00 Fair CLR 82.4 80.6 94% 94 29.87 0.0
31 11:55 Calm 10.00 Fair CLR 82.4 80.6 94% 94 29.88 0.0
31 11:35 NW 6 10.00 Fair CLR 82.4 80.6 94% 94 29.89 0.0
31 11:15 W 6 10.00 Fair CLR 80.6 80.6 100% 89 29.9 0.0
31 10:55 W 8 10.00 Fair CLR 82.4 80.6 94% 94 29.9 0.0
31 10:35 W 7 10.00 Fair CLR 82.4 80.6 94% 94 29.9 0.0
31 10:15 W 7 G 15 10.00 Fair CLR 82.4 80.6 94% 94 29.89 0.0
31 09:55 SW 7 10.00 Fair CLR 80.6 80.6 100% 89 29.88 0.0
31 09:35 SW 7 10.00 Fair CLR 78.8 78.8 100% 83 29.88 0.0
31 09:15 SW 7 10.00 Fair CLR 77 77 100% 78 29.88 0.0
31 08:55 SW 6 10.00 Fair CLR 73.4 73.4 100% 29.87 0.0
31 08:35 SW 6 10.00 Fair CLR 71.6 71.6 100% 29.86 0.0
31 08:15 S 7 10.00 Fair CLR 71.6 71.6 100% 29.85 0.0
31 07:55 S 6 10.00 Fair CLR 69.8 69.8 100% 29.85 0.0
31 07:35 S 6 10.00 Fair CLR 69.8 69.8 100% 29.84 0.0
31 07:15 S 6 10.00 Fair CLR 69.8 69.8 100% 29.83 0.0
31 06:55 S 5 10.00 Fair CLR 68 68 100% 29.83 0.0
31 06:35 S 6 10.00 Fair CLR 69.8 69.8 100% 29.83 0.0
31 06:15 S 7 10.00 Fair CLR 68 68 100% 29.83 0.0
31 05:55 S 6 10.00 Fair CLR 69.8 69.8 100% 29.83 0.0
31 05:35 S 6 10.00 Fair CLR 69.8 69.8 100% 29.82 0.0
31 05:15 S 6 10.00 Fair CLR 69.8 69.8 100% 29.82 0.0
31 04:55 S 6 10.00 Fair CLR 69.8 69.8 100% 29.82 0.0
31 04:35 S 5 10.00 Fair CLR 69.8 69.8 100% 29.82 0.0
31 04:15 S 6 10.00 Fair CLR 71.6 71.6 100% 29.82 0.0
31 03:55 S 6 10.00 Fair CLR 71.6 71.6 100% 29.82 0.0
31 03:35 S 7 10.00 Fair CLR 71.6 71.6 100% 29.82 0.0
31 03:15 S 6 10.00 Fair CLR 71.6 71.6 100% 29.82 0.0
31 02:55 S 6 10.00 Fair CLR 71.6 71.6 100% 29.82 0.0
31 02:35 S 6 10.00 Fair CLR 71.6 71.6 100% 29.81 0.0
31 02:15 S 6 0.00 NULL NULL 73.4 73.4 100% 29.81 0.0
31 01:55 S 6 10.00 Fair CLR 73.4 73.4 100% 29.81 0.0
31 01:35 S 6 10.00 Fair CLR 73.4 73.4 100% 29.82 0.0
31 01:15 Vrbl 5 10.00 Fair CLR 75.2 75.2 100% 73 29.82 0.0
31 00:55 S 6 10.00 Fair CLR 75.2 75.2 100% 73 29.82 0.0
31 00:35 S 8 10.00 Fair CLR 75.2 75.2 100% 73 29.82 0.0
31 00:15 S 8 10.00 Fair CLR 75.2 75.2 100% 73 29.82 0.0
30 23:55 S 6 10.00 Fair CLR 73.4 73.4 100% 29.82 0.0
30 23:35 SE 7 10.00 Fair CLR 73.4 73.4 100% 29.82 0.0
30 23:15 SE 8 10.00 Fair CLR 73.4 73.4 100% 29.82 0.0
30 22:55 SE 9 10.00 A Few Clouds FEW044 75.2 75.2 100% 73 29.82 0.0
30 22:35 SE 9 10.00 Fair CLR 73.4 73.4 100% 29.82 0.0
30 22:15 SE 10 G 16 10.00 A Few Clouds FEW050 75.2 75.2 100% 73 29.83 0.0
30 21:55 SE 10 10.00 Fair CLR 75.2 75.2 100% 73 29.83 0.0
30 21:35 SE 10 10.00 Fair CLR 75.2 75.2 100% 73 29.84 0.0
30 21:15 SE 10 10.00 Fair CLR 75.2 75.2 100% 73 29.84 0.0
30 20:55 SE 8 10.00 Fair CLR 75.2 75.2 100% 73 29.84 0.0
30 20:35 SE 8 10.00 Fair CLR 75.2 75.2 100% 73 29.83 0.0
30 20:15 SE 9 10.00 Fair CLR 75.2 75.2 100% 73 29.83 0.0
30 19:55 SE 9 10.00 Fair CLR 77 77 100% 78 29.83 0.0
30 19:35 S 10 10.00 Fair CLR 77 77 100% 78 29.83 0.0
30 19:15 S 10 10.00 Fair CLR 77 77 100% 78 29.82 0.0
30 18:55 S 10 10.00 Fair CLR 78.8 78.8 100% 83 29.82 0.0
30 18:35 SE 12 10.00 Fair CLR 78.8 78.8 100% 83 29.82 0.0
30 18:15 SE 8 G 15 10.00 Fair CLR 77 77 100% 78 29.83 0.0
30 17:55 S 10 10.00 Fair CLR 77 77 100% 78 29.82 0.0
30 17:35 S 9 10.00 Fair CLR 77 77 100% 78 29.82 0.0
30 17:15 S 12 10.00 Fair CLR 78.8 75.2 89% 82 29.81 0.0
30 16:55 S 12 10.00 Fair CLR 78.8 77 94% 83 29.82 0.0
30 16:35 S 12 10.00 Fair CLR 78.8 77 94% 83 29.81 0.0
30 16:15 S 9 G 17 10.00 Fair CLR 78.8 77 94% 83 29.81 0.0
30 15:55 S 12 10.00 Fair CLR 80.6 75.2 84% 86 29.81 0.0
30 15:35 S 12 10.00 Fair CLR 80.6 75.2 84% 86 29.82 0.0
30 15:15 S 13 10.00 Fair CLR 82.4 75.2 79% 89 29.83 0.0
30 14:55 S 12 10.00 Fair CLR 82.4 75.2 79% 89 29.83 0.0
30 14:35 S 12 10.00 Fair CLR 82.4 73.4 74% 88 29.82 0.0
30 14:15 S 12 10.00 Fair CLR 80.6 77 89% 87 29.82 0.0
30 13:55 S 9 10.00 Fair CLR 78.8 75.2 89% 82 29.83 0.0
30 13:35 S 8 G 14 10.00 Fair CLR 78.8 77 94% 83 29.84 0.0
30 13:15 S 9 10.00 Fair CLR 75.2 75.2 100% 73 29.84 0.0
30 12:35 S 9 G 17 0.00 NULL NULL 77 77 100% 78 29.84 0.0
30 12:15 S 9 10.00 Fair CLR 75.2 75.2 100% 73 29.85 0.0
30 11:55 S 9 10.00 Fair CLR 75.2 75.2 100% 73 29.85 0.0
30 11:35 S 9 10.00 Fair CLR 73.4 73.4 100% 29.83 0.0
30 11:15 S 5 10.00 Fair CLR 73.4 73.4 100% 29.85 0.0
30 10:55 W 6 10.00 A Few Clouds FEW055 73.4 73.4 100% 29.85 0.0 0.01
30 10:35 W 5 G 12 9.00 Mostly Cloudy SCT055 SCT070 BKN120 73.4 73.4 100% 29.84 0.0
30 10:15 SW 8 10.00 Mostly Cloudy FEW040 SCT085 BKN120 73.4 73.4 100% 29.83 0.0
30 09:35 SW 9 6.00 Fog/Mist FEW043 FEW060 BKN100 71.6 71.6 100% 29.85 0.0
30 09:15 S 8 10.00 Fair CLR 75.2 75.2 100% 73 29.81 0.0
30 08:55 S 8 10.00 Fair CLR 73.4 73.4 100% 29.81 0.0
30 08:35 S 8 10.00 Fair CLR 73.4 73.4 100% 29.81 0.0
30 08:15 S 8 10.00 Fair CLR 71.6 71.6 100% 29.81 0.0
30 07:55 S 8 10.00 Fair CLR 71.6 71.6 100% 29.81 0.0
30 07:35 S 6 10.00 Fair CLR 71.6 71.6 100% 29.81 0.0
30 07:15 S 7 10.00 Fair CLR 69.8 69.8 100% 29.81 0.0
30 06:55 S 7 10.00 Fair CLR 69.8 69.8 100% 29.81 0.0
30 06:35 S 8 10.00 Fair CLR 69.8 69.8 100% 29.81 0.0
30 06:15 S 7 10.00 Fair CLR 69.8 69.8 100% 29.81 0.0
30 05:55 S 9 10.00 Fair CLR 69.8 69.8 100% 29.81 0.0
30 05:35 S 8 10.00 Fair CLR 69.8 69.8 100% 29.81 0.0
30 05:15 S 8 10.00 Fair CLR 69.8 69.8 100% 29.81 0.0
30 04:55 S 9 10.00 Fair CLR 69.8 69.8 100% 29.81 0.0
30 04:35 S 9 10.00 Fair CLR 69.8 69.8 100% 29.81 0.0
30 04:15 S 13 10.00 Fair CLR 69.8 69.8 100% 29.81 0.0
30 03:55 S 10 10.00 Fair CLR 69.8 69.8 100% 29.81 0.0
30 03:35 S 12 10.00 A Few Clouds FEW050 FEW055 69.8 69.8 100% 29.81 0.0
30 03:15 S 8 10.00 Partly Cloudy SCT055 69.8 69.8 100% 29.81 0.0
30 02:55 S 7 10.00 Partly Cloudy SCT055 69.8 69.8 100% 29.82 0.0
30 02:35 S 7 10.00 Partly Cloudy SCT060 68 68 100% 29.82 0.0
30 02:15 S 7 10.00 Partly Cloudy SCT060 69.8 69.8 100% 29.82 0.0
30 01:55 S 6 10.00 A Few Clouds FEW055 FEW065 69.8 69.8 100% 29.83 0.0
30 01:35 SE 6 10.00 A Few Clouds FEW060 71.6 71.6 100% 29.83 0.0
30 01:15 SE 8 10.00 A Few Clouds FEW060 71.6 71.6 100% 29.83 0.0
30 00:55 SE 7 10.00 A Few Clouds FEW055 71.6 71.6 100% 29.84 0.0
30 00:35 SE 7 10.00 Partly Cloudy SCT055 69.8 69.8 100% 29.84 0.0
30 00:15 SE 7 10.00 Partly Cloudy FEW050 SCT055 69.8 69.8 100% 29.84 0.0
29 23:55 SE 6 10.00 Partly Cloudy SCT060 69.8 69.8 100% 29.84 0.0
29 23:35 SE 6 10.00 Partly Cloudy SCT060 71.6 71.6 100% 29.84 0.0
29 23:15 SE 6 10.00 Mostly Cloudy BKN060 69.8 69.8 100% 29.85 0.0
29 22:55 E 5 10.00 Mostly Cloudy SCT050 BKN060 69.8 69.8 100% 29.85 0.0
29 22:35 E 5 10.00 Partly Cloudy SCT055 71.6 71.6 100% 29.85 0.0
29 22:15 E 6 10.00 Partly Cloudy SCT055 73.4 73.4 100% 29.85 0.0
29 21:55 SE 5 10.00 Partly Cloudy SCT049 SCT055 73.4 73.4 100% 29.84 0.0
29 21:35 SE 7 10.00 Partly Cloudy SCT049 SCT055 75.2 75.2 100% 73 29.83 0.0
29 21:15 SE 7 10.00 A Few Clouds FEW055 75.2 75.2 100% 73 29.83 0.0
29 20:55 SE 8 10.00 A Few Clouds FEW045 FEW050 75.2 75.2 100% 73 29.83 0.0
29 20:35 SE 7 10.00 A Few Clouds FEW044 75.2 75.2 100% 73 29.82 0.0
29 20:15 SE 8 10.00 Fair CLR 75.2 75.2 100% 73 29.81 0.0
29 19:55 SE 8 10.00 Fair CLR 77 77 100% 78 29.81 0.0
29 19:35 S 9 10.00 Fair CLR 77 77 100% 78 29.81 0.0
29 19:15 S 8 10.00 Fair CLR 77 77 100% 78 29.82 0.0
29 18:55 S 7 10.00 Fair CLR 78.8 77 94% 83 29.83 0.0
29 18:35 S 7 10.00 Fair CLR 78.8 75.2 89% 82 29.83 0.0
29 18:15 S 8 10.00 Fair CLR 78.8 75.2 89% 82 29.83 0.0
29 17:55 S 9 10.00 Fair CLR 80.6 75.2 84% 86 29.82 0.0
29 17:35 S 9 10.00 Fair CLR 82.4 75.2 79% 89 29.82 0.0
29 16:55 S 13 10.00 Fair CLR 78.8 73.4 84% 82 29.82 0.0
29 16:35 S 14 G 21 10.00 Fair CLR 78.8 71.6 79% 82 29.82 0.0
29 16:15 S 14 G 25 10.00 Fair CLR 78.8 71.6 79% 82 29.83 0.0
29 15:55 S 15 G 23 10.00 Fair CLR 78.8 71.6 79% 82 29.83 0.0
Date Time (cdt) Wind (mph) Vis. (mi.) Weather Sky Cond. Air Dwpt Max. Min. Relative Humidity Wind Chill (°F) Heat Index (°F) altimeter (in) sea level (mb) 1 hr 3 hr 6 hr
6 hour
Temperature (ºF) Pressure Precipitation (in)